Hourly Data Report for October 01, 2017

All times are specified in Local Standard Time (LST). Add 1 hour to adjust for Daylight Saving Time where and when it is observed.

GRETNA (AUT)
MANITOBA

49°01'51.004" N
97°33'36.003" W
252.60 m
5021220
71441
WGN

Download Data

Hourly Data (October 2017)
Hourly Data Report for October 1, 2017
Temp Definition
°C
Dew Point Temp Definition
°C
Rel Hum Definition
%
Wind Dir Definition
10's deg

Wind Spd Definition
km/h
Visibility Definition
km
Stn Press Definition
kPa
Hmdx Definition


Wind Chill Definition


Weather Definition


TIME
00:00 14.9 9.4 69 16 29   97.82     LegendNANA
01:00 15.0 9.6 70 16 30   97.73     LegendNANA
02:00 14.6 9.6 72 16 32   97.66     LegendNANA
03:00 14.5 9.6 73 16 33   97.58     LegendNANA
04:00 13.9 9.6 76 16 28   97.52     LegendNANA
05:00 13.7 9.7 77 16 23   97.46     LegendNANA
06:00 13.1 9.5 79 15 20   97.46     LegendNANA
07:00 13.2 9.5 78 15 19   97.46     LegendNANA
08:00 14.4 10.2 76 15 28   97.44     LegendNANA
09:00 15.7 11.3 75 16 34   97.40     LegendNANA
10:00 15.8 11.6 76 15 28   97.37     LegendNANA
11:00 14.6 11.4 81 15 38   97.37     LegendNANA
12:00 13.6 11.6 88 15 27   97.32     LegendNANA
13:00 13.9 11.6 86 15 26   97.23     LegendNANA
14:00 14.2 11.6 84 15 29   97.18     LegendNANA
15:00 14.7 11.8 83 16 31   97.13     LegendNANA
16:00 14.8 11.9 83 16 32   97.12     LegendNANA
17:00 14.9 11.9 83 16 32   97.12     LegendNANA
18:00 14.2 12.3 88 16 34   97.16     LegendNANA
19:00 14.0 12.2 89 15 27   97.16     LegendNANA
20:00 14.1 12.4 89 16 23   97.27     LegendNANA
21:00 14.1 12.5 90 16 19   97.26     LegendNANA
22:00 14.2 12.6 90 14 18   97.19     LegendNANA
23:00 14.5 12.7 89 16 27   97.25     LegendNANA

Notes on Data Quality.

Legend

  • E = Estimated
  • M = Missing
  • NA = Not Available
  • ‡ = Partner data that is not subject to review by the National Climate Archives
Date modified: